map of PPG home
PPG - Airport
Location
City:  Pago Pago, American Samoa
Name:Tafuna/Pago Pago International Airport
ICAO:NSTU
IATA:PPG
FAA LID:PPG

Details
Type:Airport (Part 139 Class I)
Use:Public/Civil, International (customs by prior arrangement)
Latitude:1419'54"S (-14.331659)
Longitude:17042'41"W (-170.711502)
Datum:WGS 1984
Elevation:32 ft (10 m)
Variation:11.75E (WMM2015 magnetic declination)
0.04 annual change
Runways:2
Longest:10000 × 150 ft (3048 × 45.5 m), paved

Time
Time Zone:UTC-11
Local Time:

Weather
METAR:NSTU 250550Z 10010KT 10SM FEW022 FEW040 SCT100 BKN210 27/26 A2984 RMK SLP107 8/871 T02740262 10295 20274 52005
TAF:NSTU 250538Z 2506/2606 09009KT P6SM VCSH SCT015 BKN040 BKN100

Related Locations
Nearby:
Farthest:ZND: 12390 mi / 19940 km
Zinder, NE

Find:

   beyond  
but within

Other Information
Maps:
NOTAMs:
Links:
Sources:

  
flag of American Samoa   

Airport Diagram

Airport diagram for PPG

Airport diagram PDF

Sectional Chart

Flight Planning
at skyvector.com

Satellite Image

Google Maps Satellite view

 

Copyright © 2004-2017 Karl L. Swartz. All rights reserved.
The Great Circle Mapper name and logo are trademarks of the Great Circle Mapper.
All other trademarks mentioned herein belong to their respective owners.
Please see credits for attibutions and further copyright information.

  Follow gcmap on Facebook Follow gcmap on Twitter Follow gcmap on Google+ GCmap on LinkedIn

hCard Microformat

Geo Microformat